Wind_Gust
10 10 10 10 12 11 9 7 7 7 8 8 8 10 10 10 11 11 12 13 12 13 14 14 15 16 17 17 17 18 16 16 17 18 19 20 20 20 23 21 21 23
11 10 11 10 11 9 9 8 8 7 8 8 9 10 10 11 11 11 12 13 12 12 13 14 15 16 16 16 17 18 18 17 17 18 19 19 21 21 22 21 22 23
12 11 12 11 11 10 9 8 8 9 11 10 10 11 11 11 11 12 12 13 12 12 13 13 14 14 15 15 16 17 17 17 17 17 18 19 19 21 21 21 22 22
13 12 12 11 11 10 9 10 10 10 11 11 12 12 12 11 11 12 12 12 12 13 14 14 15 15 15 15 15 16 17 17 18 19 19 20 20 21 22 22 23 23
12 12 12 12 11 11 11 12 13 13 13 14 13 12 13 12 13 13 14 14 14 14 14 15 15 16 17 16 16 15 16 17 17 18 19 20 21 22 22 22 23 23
13 13 12 13 12 13 14 14 14 14 14 13 13 13 13 13 14 14 15 15 15 16 16 16 17 17 17 16 16 16 17 18 18 18 19 20 21 20 22 21 22 23
13 13 12 14 14 14 14 15 15 14 15 14 14 14 14 14 14 15 16 16 16 17 17 18 17 17 17 17 17 17 18 17 17 18 19 20 21 21 20 21 22 22
13 13 15 15 15 15 15 16 17 16 15 14 14 14 14 16 16 16 16 17 17 17 17 17 17 17 17 17 18 18 18 18 18 19 19 19 20 20 20 20 20 22
14 15 15 15 15 16 17 17 16 15 16 15 15 15 15 16 16 16 17 17 17 17 17 17 18 17 17 18 18 19 19 19 18 19 19 19 19 20 20 20 20 20
16 16 16 15 16 17 17 16 16 15 15 16 16 16 16 15 15 16 16 16 16 17 17 18 18 19 19 19 19 19 19 19 19 18 18 18 19 20 20 20 21 21
16 16 16 17 17 17 16 16 16 16 16 17 16 16 15 15 16 15 16 16 17 17 17 18 19 20 20 20 20 19 18 18 18 18 18 18 18 18 16 20 20 20
16 16 16 17 16 16 16 16 16 16 17 17 16 16 15 16 16 16 16 17 17 18 18 19 19 20 21 22 21 20 18 18 18 18 18 18 17 18 18 18 19 19
16 16 17 17 16 16 16 16 17 17 17 17 16 16 16 17 17 16 16 17 18 19 19 20 20 21 23 23 22 21 19 19 18 18 18 18 17 18 18 17 18 18
17 16 17 17 17 17 17 16 17 17 17 16 16 16 17 17 17 17 17 17 18 19 20 20 21 21 23 24 23 22 20 19 19 19 19 19 18 19 19 19 19 18
16 16 16 16 16 16 16 16 17 17 17 17 17 17 17 18 18 18 18 19 20 20 20 20 21 23 23 24 23 23 21 18 18 19 20 20 20 20 20 21 20 20
18 16 16 16 16 16 16 16 16 16 17 17 17 17 17 17 18 18 18 19 20 21 21 21 22 22 24 23 18 20 20 18 17 18 20 21 22 22 21 22 22 21
17 17 17 17 16 16 16 16 18 17 17 17 18 17 18 18 18 19 18 19 21 22 23 23 24 25 23 19 20 19 19 18 17 18 19 20 22 23 24 24 24 24
18 18 17 17 17 17 16 16 17 17 17 17 17 18 18 18 19 19 19 19 20 22 24 24 24 21 20 19 20 21 17 19 18 19 21 22 22 24 25 25 25 26
18 18 18 17 16 16 16 16 18 17 17 17 18 17 17 19 19 19 19 19 20 22 24 24 23 21 20 20 20 21 20 18 20 20 22 23 23 25 26 28 27 26
18 18 18 17 16 16 16 18 18 17 16 17 17 16 17 18 18 18 19 19 20 20 23 24 25 20 20 21 20 21 20 17 21 21 22 23 24 26 28 28 28 28
18 17 17 17 17 17 17 18 18 18 18 17 18 17 18 18 18 19 19 19 19 20 22 24 25 22 21 22 22 22 23 14 21 21 22 23 24 24 27 28 28 29
18 18 17 17 18 18 19 19 19 18 18 18 18 18 19 20 20 21 21 20 19 19 20 23 25 23 22 22 23 23 25 19 20 21 22 23 24 23 24 28 28 30
18 19 18 18 19 19 19 19 18 18 18 18 18 18 18 18 19 19 20 21 21 21 20 23 24 24 22 23 24 25 19 20 19 22 21 22 23 22 23 24 27 29
18 19 19 18 18 19 19 19 18 18 18 17 17 17 18 18 18 20 21 21 21 23 23 21 23 22 21 22 24 25 22 20 19 21 21 22 22 22 22 22 22 19
18 18 18 18 19 20 19 18 19 18 17 15 16 17 18 19 19 20 20 21 22 21 15 20 22 21 20 20 23 24 26 20 21 20 21 22 22 23 22 23 24 19
17 17 18 19 20 19 19 19 16 16 16 16 16 18 19 19 19 21 20 20 20 22 24 22 21 24 24 20 21 22 25 24 22 21 22 22 22 24 24 23 24 24
Wind_Speed
4 4 4 4 5 4 3 3 2 3 2 1 2 4 4 3 4 5 5 5 6 5 6 7 7 8 8 8 9 8 8 8 7 8 8 9 9 10 10 11 11 11
4 5 4 4 4 3 3 3 3 2 3 2 3 3 3 4 5 5 5 6 5 5 6 6 6 6 6 6 7 7 7 7 9 7 9 10 9 10 10 12 12 11
6 5 6 6 5 5 4 3 3 3 4 4 3 4 4 4 4 5 5 5 5 5 5 6 6 6 7 7 7 6 7 8 8 9 9 10 10 10 10 10 10 11
6 6 6 5 5 4 3 4 4 4 3 4 4 4 4 3 4 4 4 4 5 5 5 6 6 6 7 7 7 6 7 7 7 8 9 8 9 9 10 10 11 11
6 5 5 5 5 5 5 5 5 5 5 4 4 4 5 4 4 5 5 5 5 5 5 6 6 6 6 6 7 6 7 7 8 8 9 9 9 9 9 9 11 12
5 5 5 5 5 5 5 6 5 6 5 6 5 5 5 5 5 5 5 5 5 6 6 6 6 7 7 7 7 7 7 7 8 9 9 9 9 9 8 9 10 11
5 6 6 6 6 6 6 6 6 5 5 5 5 5 5 5 5 6 6 6 6 6 7 7 7 7 7 7 7 8 8 8 8 9 10 9 9 10 10 10 11 11
7 6 6 6 6 7 6 6 6 5 5 5 6 6 5 6 6 6 6 6 6 7 7 7 8 8 7 7 8 8 9 7 8 9 10 10 10 10 10 9 9 11
7 7 7 7 7 6 7 7 6 6 6 6 6 6 6 6 7 6 6 7 7 7 7 7 8 8 8 8 8 9 9 9 9 10 10 10 10 10 11 11 11 11
8 7 7 8 7 7 7 7 6 6 6 6 6 6 6 6 6 6 7 7 7 7 8 8 9 9 9 9 9 9 9 9 9 9 9 10 10 10 10 10 10 10
9 8 8 8 7 7 7 7 7 7 6 7 7 7 7 6 6 7 7 7 7 8 9 9 10 10 10 10 10 9 9 9 9 9 9 10 9 9 9 9 10 10
8 9 8 8 7 7 7 7 7 7 7 7 7 7 7 7 7 7 7 7 8 9 9 9 9 10 10 11 10 10 9 9 9 9 9 9 9 9 9 8 9 9
8 8 8 8 7 7 6 7 7 7 8 8 7 7 7 7 7 7 7 8 8 9 9 9 10 10 11 12 11 10 9 10 9 9 9 8 9 10 10 9 9 9
8 8 8 8 7 7 7 7 7 8 8 7 7 8 8 8 8 8 8 8 8 8 9 9 10 10 11 12 11 11 9 9 9 9 9 9 10 10 10 10 10 9
8 8 8 8 8 8 8 8 8 8 8 7 7 7 7 7 7 8 8 9 9 9 9 10 9 10 9 9 9 11 10 9 9 10 10 10 10 11 11 10 10 10
8 8 8 8 8 8 8 8 8 8 7 8 8 8 8 8 8 8 8 9 9 10 9 9 9 8 11 16 12 8 9 8 8 9 10 10 11 11 11 11 11 11
8 8 8 8 8 8 8 8 8 7 7 8 8 8 8 8 8 8 8 8 10 10 10 9 8 8 15 14 16 15 9 8 8 9 10 10 11 12 12 13 13 13
9 9 9 9 8 8 8 8 8 7 7 7 8 8 8 8 8 8 8 8 8 10 10 9 7 12 15 16 16 17 14 9 7 8 8 9 10 11 11 12 13 13
9 9 9 8 8 8 7 7 7 7 7 7 8 8 8 8 8 8 8 7 8 9 10 10 9 14 15 16 16 16 16 12 7 8 9 10 10 11 12 13 13 13
8 9 8 8 8 8 8 7 7 7 7 6 7 7 7 8 8 8 8 7 7 8 9 9 11 13 15 17 16 17 16 11 7 9 9 10 11 11 11 13 14 14
9 9 8 9 8 8 7 8 7 7 6 7 7 7 7 7 7 8 7 7 7 8 8 9 9 18 16 17 16 17 18 10 8 7 8 9 9 10 11 11 14 13
9 9 9 9 9 8 8 8 8 8 8 7 7 8 8 7 8 8 8 8 9 9 9 10 10 16 17 17 18 18 18 4 8 7 8 8 9 10 10 10 12 13
9 9 9 9 9 9 8 8 8 7 7 7 7 6 7 7 7 7 7 8 9 9 9 10 10 14 16 16 17 20 14 7 7 8 8 8 9 10 10 9 9 13
9 9 10 9 9 8 8 8 7 7 7 6 6 6 7 8 8 8 9 9 9 9 9 10 11 14 17 17 17 18 16 7 8 9 8 9 8 9 9 9 9 15
9 9 9 9 9 9 8 8 8 7 6 6 6 6 7 6 7 7 8 8 9 9 10 10 11 12 16 16 18 19 16 8 8 7 8 8 8 8 8 8 9 11
8 9 9 8 8 8 8 7 6 6 6 5 6 6 7 7 6 7 7 7 8 10 10 9 9 11 12 15 17 17 20 11 8 8 9 9 8 8 8 8 9 9
Wind_Direction
82 92 84 59 57 52 48 62 77 71 54 15 7 13 25 18 10 350 357 345 349 345 352 343 343 341 339 328 332 326 312 310 307 304 306 307 304 304 300 298 298 294
86 84 97 101 103 93 84 49 34 60 83 54 27 15 37 15 14 5 357 359 347 357 352 348 344 341 336 329 331 326 316 318 322 318 315 315 311 309 308 308 304 299
92 85 87 86 85 86 94 80 76 45 50 47 45 36 31 30 8 17 12 5 358 357 357 352 347 347 343 336 340 328 330 333 322 328 329 323 316 308 306 300 295 298
88 86 90 91 95 98 81 88 83 75 58 65 50 44 46 32 32 22 12 19 13 3 0 5 357 352 350 347 345 337 339 328 335 340 329 321 319 315 310 312 309 304
101 102 98 98 98 88 89 87 80 75 75 70 62 51 42 34 32 28 20 20 20 12 11 11 2 358 351 349 345 343 342 335 340 339 331 328 326 324 323 321 315 312
86 83 79 79 83 88 88 84 81 84 82 72 60 50 45 40 38 31 30 23 23 19 15 12 6 3 2 354 351 351 345 343 340 338 336 335 334 333 324 318 316 313
85 83 82 79 81 87 85 76 74 73 71 73 68 55 48 47 41 33 26 23 24 23 14 12 7 7 4 356 353 352 348 344 341 341 339 340 337 333 333 331 329 322
83 77 76 81 79 76 78 76 68 67 69 69 67 59 48 47 44 38 28 27 24 18 17 15 10 11 6 360 356 352 349 345 343 342 341 338 336 332 334 334 328 326
90 93 94 85 81 78 77 75 72 64 66 66 65 63 55 48 44 37 32 29 26 25 22 19 17 15 10 5 2 355 352 351 348 345 342 339 337 337 336 334 331 331
101 97 89 86 83 79 80 81 75 70 68 70 67 64 63 60 50 43 42 36 35 34 30 23 20 18 7 3 359 355 355 353 349 348 347 344 342 341 339 338 339 337
105 98 92 85 83 82 82 81 80 76 68 68 68 64 58 55 53 45 45 44 41 33 31 22 20 12 6 2 356 352 352 352 351 350 350 351 353 351 349 345 342 344
101 95 88 87 87 84 79 79 81 79 76 70 65 67 64 59 61 54 46 49 42 39 28 21 17 14 7 0 354 350 345 350 356 357 355 359 357 352 346 342 343 347
93 91 94 90 85 84 85 81 76 76 74 71 69 69 67 67 65 62 55 47 44 40 32 23 19 15 9 2 357 354 346 343 1 0 354 358 349 348 349 347 351 358
102 98 92 90 90 86 83 83 82 79 77 74 73 68 66 64 60 58 57 52 44 40 32 26 20 17 12 5 360 355 348 341 6 1 356 0 355 352 354 353 354 356
105 101 99 98 94 93 88 82 80 79 79 79 74 73 68 62 60 57 57 52 45 39 32 27 25 17 11 350 345 344 340 341 8 4 6 4 1 4 6 2 357 358
107 105 103 100 99 95 93 92 86 80 80 76 73 69 66 63 60 54 54 53 46 39 34 30 26 23 349 336 333 333 330 332 11 14 13 13 11 7 11 7 3 2
109 107 105 101 102 99 94 90 85 83 80 77 74 71 67 64 61 64 57 50 49 43 36 33 33 8 345 340 338 338 337 335 21 20 22 16 16 15 10 5 1 357
113 109 106 103 102 100 97 91 90 88 83 80 78 74 68 63 65 60 59 56 50 48 39 32 31 5 351 348 345 344 342 331 22 27 27 17 18 17 13 9 3 357
114 110 108 108 103 98 93 93 91 87 84 83 80 79 75 69 65 61 59 55 54 53 44 33 27 1 353 352 348 347 341 334 32 29 27 25 18 16 13 11 5 356
110 110 109 108 107 101 99 98 97 94 96 93 92 85 84 80 68 66 62 58 51 50 49 36 24 358 354 357 350 347 343 328 43 29 31 23 19 17 12 12 7 359
115 111 109 105 101 99 99 95 91 97 92 83 80 80 79 74 76 72 70 66 59 51 48 38 22 4 360 359 354 348 343 319 44 32 30 23 19 13 16 19 10 4
117 116 112 111 109 108 105 100 97 91 93 94 86 75 70 69 65 64 68 68 62 56 52 43 30 12 0 0 356 352 337 4 40 38 24 28 20 18 21 23 17 12
116 115 113 111 108 108 106 106 106 103 91 83 90 92 89 82 82 74 63 58 54 56 56 47 33 16 6 3 360 357 347 17 47 41 31 27 32 23 23 31 43 25
117 117 116 113 111 108 107 108 107 98 97 98 94 98 95 93 90 83 74 66 58 53 49 53 39 22 12 6 7 1 349 1 47 44 35 31 34 32 25 24 65 55
112 110 109 111 112 112 111 109 103 104 117 114 104 98 95 97 93 89 86 76 67 60 43 51 48 33 16 10 10 8 1 3 43 48 37 35 27 28 30 25 17 54
104 107 110 114 111 106 102 101 105 106 100 102 103 99 98 96 92 89 91 87 78 64 54 45 51 48 28 15 15 12 8 2 40 19 24 31 27 22 25 23 29 23